CZ-3C DEB, 40863

Orbit data source: Space-Track

CZ-3C DEB, 40863 is space debris in HEO originally from a launch on Fri, 24 Feb 2012 UTC launched from the Xichang Space Center, China (XSC). Debris objects in space refer to the collection of defunct objects orbiting the Earth. Examples of debris include non-operational satellites, rocket bodies, and fragments generated from explosions, collisions, or faulty payload assembly.

Loading next visibility...
Identifier
40863, 2012-008AD
Orbit
HEO
Country
Flag of CNCN / PRC
Related business
Manufacturer
CALT
Mission
Spacecraft
Bus & Motor
Unknown
Mass
Unknown
Launch date (UTC)
2012-02-24 (14 years ago)
Launch vehicle
Unknown
Launch site
Xichang Space Center, China (XSC)
Object type
Payload
Rocket body
Debris
Shape & HBR
Unknown shape, 0.2 m
Radar Cross Section
Medium (>0.1 m² and <1 m²)

Expand to show TLE details & history
Last TLE update: 4 days ago

TLE from 4 days ago
0 CZ-3C DEB
1 40863U 12008AD  26160.14794284 -.00000021  00000-0  00000-0 0  9990
2 40863  20.3995 192.3106 7070988 241.9737  31.3114  2.20873019 92067
Epoch: 2026-06-09T03:33Z
TLE epoch observation values (Epoch: 2026-06-09T03:33:02.261Z)
Latitude
-0.00002°
Longitude
-118.42295°
Altitude
12,263.195 km
Speed
5.173 km/s
True Right ascension
12h 49m 26s
True Declination
0° 00' 00"
Sunlit
Object was in daylight at epoch
Visualization orbit readout
Latitude
Unknown
Longitude
Unknown
Altitude
Unknown
Speed
Unknown
Apparent Right ascension
Unknown
Apparent Declination
Unknown
Sunlit
N/A
Visualization observer readout
Local Sidereal Time
13:03:33
Azimuth
Unknown
Elevation
Unknown
Doppler factor
Unknown
Orbital elements
Apogee altitude
36,146.143 km
Perigee altitude
918.109 km
Semi-major axis
24,910.263 km
Eccentricity
0.7071
Inclination
20.3995°
RAAN
192.3106°
Arg. of periapsis
241.9737°
True anomaly
118.01562°
Mean anomaly
31.3114°
Eccentric anomaly
69.17959°
Mean motion
0.55205 °/min
Orbital period
652.12 mins
BSTAR
0
Loading maneuver chart data...
Computing Atmospheric mass density...
Loading historical data...
Loading historical data...
Loading historical data...
Loading historical data...
Loading historical data...
Loading historical data...
Loading historical data...

Documentation

Showing up to 5 results
|